• En España
  • Lista de países
  • Para 7 días
  • Temperatura del agua
  • Mapa Satelital
  • El tiempo en el mapa
  • Informadores
  • user-avatar
    Iniciar sesión

    Tiempo cada hora Fier

    Hoy, 23 Noviembre, Jueves

    Tiempo Temperatura Precipitaciones Viento Presión Humedad
    00:00 +10°C° 0 mm 1 mps 765 mmHg 69%
    01:00 +10°C° 0 mm 1 mps 764 mmHg 68%
    02:00 +10°C° 0 mm 1 mps 764 mmHg 68%
    03:00 +10°C° 0 mm 1 mps 764 mmHg 67%
    04:00 +10°C° 0 mm 1 mps 764 mmHg 66%
    05:00 +10°C° 0 mm 1 mps 764 mmHg 66%
    06:00 +10°C° 0 mm 1 mps 764 mmHg 65%
    07:00 +9°C° 0 mm 2 mps 765 mmHg 65%
    08:00 +12°C° 0 mm 1 mps 765 mmHg 60%
    09:00 +14°C° 0 mm 1 mps 765 mmHg 54%
    10:00 +16°C° 0 mm 1 mps 765 mmHg 49%
    11:00 +16°C° 0 mm 1 mps 764 mmHg 48%
    12:00 +18°C° 0 mm 1 mps 764 mmHg 48%
    13:00 +19°C° 0 mm 1 mps 764 mmHg 47%
    14:00 +18°C° 0 mm 1 mps 764 mmHg 53%
    15:00 +15°C° 0 mm 1 mps 764 mmHg 59%
    16:00 +14°C° 0 mm 1 mps 764 mmHg 65%
    17:00 +13°C° 0 mm 1 mps 764 mmHg 67%
    18:00 +13°C° 0 mm 1 mps 764 mmHg 69%
    19:00 +12°C° 0 mm 1 mps 765 mmHg 71%
    20:00 +12°C° 0 mm 1 mps 765 mmHg 71%
    21:00 +11°C° 0 mm 1 mps 765 mmHg 70%
    22:00 +11°C° 0 mm 1 mps 765 mmHg 69%
    23:00 +11°C° 0 mm 1 mps 765 mmHg 69%

    Mañana, 24 Noviembre, Viernes

    Tiempo Temperatura Precipitaciones Viento Presión Humedad
    00:00 +11°C° 0 mm 1 mps 765 mmHg 68%
    01:00 +11°C° 0 mm 1 mps 765 mmHg 68%
    02:00 +11°C° 0 mm 1 mps 765 mmHg 68%
    03:00 +10°C° 0 mm 1 mps 765 mmHg 67%
    04:00 +10°C° 0 mm 1 mps 765 mmHg 67%
    05:00 +10°C° 0 mm 1 mps 765 mmHg 67%
    06:00 +10°C° 0 mm 1 mps 765 mmHg 67%
    07:00 +9°C° 0 mm 2 mps 765 mmHg 67%
    08:00 +12°C° 0 mm 1 mps 765 mmHg 63%
    09:00 +14°C° 0 mm 1 mps 765 mmHg 60%
    10:00 +16°C° 0 mm 1 mps 765 mmHg 56%
    11:00 +16°C° 0 mm 1 mps 765 mmHg 56%
    12:00 +18°C° 0 mm 1 mps 764 mmHg 57%
    13:00 +18°C° 0 mm 1 mps 764 mmHg 58%
    14:00 +16°C° 0 mm 1 mps 764 mmHg 64%
    15:00 +15°C° 0 mm 1 mps 764 mmHg 70%
    16:00 +14°C° 0 mm 1 mps 764 mmHg 75%
    17:00 +13°C° 0 mm 1 mps 764 mmHg 78%
    18:00 +13°C° 0 mm 1 mps 764 mmHg 81%
    19:00 +12°C° 0 mm 1 mps 765 mmHg 84%
    20:00 +12°C° 0 mm 1 mps 765 mmHg 83%
    21:00 +11°C° 0 mm 1 mps 765 mmHg 83%
    22:00 +11°C° 0 mm 1 mps 765 mmHg 83%
    23:00 +11°C° 0 mm 1 mps 765 mmHg 82%

    Pasado mañana, 25 Noviembre, Sábado

    Tiempo Temperatura Precipitaciones Viento Presión Humedad
    00:00 +11°C° 0 mm 1 mps 765 mmHg 81%
    01:00 +11°C° 0 mm 1 mps 765 mmHg 80%
    02:00 +10°C° 0 mm 1 mps 765 mmHg 79%
    03:00 +10°C° 0 mm 1 mps 765 mmHg 78%
    04:00 +10°C° 0 mm 1 mps 765 mmHg 77%
    05:00 +10°C° 0 mm 1 mps 765 mmHg 76%
    06:00 +10°C° 0 mm 1 mps 765 mmHg 75%
    07:00 +10°C° 0 mm 1 mps 765 mmHg 75%
    08:00 +12°C° 0 mm 1 mps 765 mmHg 68%
    09:00 +14°C° 0 mm 1 mps 765 mmHg 61%
    10:00 +16°C° 0 mm 1 mps 764 mmHg 54%
    11:00 +16°C° 0 mm 1 mps 764 mmHg 52%
    12:00 +18°C° 0 mm 1 mps 764 mmHg 50%
    13:00 +18°C° 0 mm 1 mps 763 mmHg 49%
    14:00 +16°C° 0 mm 1 mps 763 mmHg 55%
    15:00 +15°C° 0 mm 1 mps 763 mmHg 61%
    16:00 +14°C° 0 mm 2 mps 763 mmHg 67%
    17:00 +13°C° 0 mm 2 mps 763 mmHg 70%
    18:00 +13°C° 0 mm 2 mps 763 mmHg 74%
    19:00 +12°C° 0 mm 2 mps 764 mmHg 77%
    20:00 +11°C° 0 mm 3 mps 764 mmHg 78%
    21:00 +11°C° 0 mm 3 mps 764 mmHg 78%
    22:00 +10°C° 0 mm 3 mps 764 mmHg 79%
    23:00 +10°C° 0 mm 4 mps 764 mmHg 80%

    26 Noviembre, Domingo

    Tiempo Temperatura Precipitaciones Viento Presión Humedad
    00:00 +10°C° 0 mm 4 mps 763 mmHg 80%
    01:00 +10°C° 0 mm 4 mps 763 mmHg 81%
    02:00 +10°C° 0 mm 4 mps 763 mmHg 81%
    03:00 +10°C° 0 mm 4 mps 763 mmHg 80%
    04:00 +9°C° 0 mm 5 mps 763 mmHg 80%
    05:00 +9°C° 0 mm 5 mps 763 mmHg 79%
    06:00 +9°C° 0 mm 5 mps 763 mmHg 79%
    07:00 +9°C° 0 mm 5 mps 763 mmHg 78%
    08:00 +12°C° 0 mm 5 mps 762 mmHg 72%
    09:00 +14°C° 0 mm 5 mps 762 mmHg 67%
    10:00 +16°C° 0 mm 5 mps 762 mmHg 61%
    11:00 +16°C° 0 mm 6 mps 761 mmHg 60%
    12:00 +17°C° 0 mm 6 mps 760 mmHg 60%
    13:00 +19°C° 0 mm 6 mps 760 mmHg 60%
    14:00 +17°C° 0,2 mm 6 mps 760 mmHg 66%
    15:00 +16°C° 0,2 mm 6 mps 759 mmHg 71%
    16:00 +15°C° 0,2 mm 6 mps 759 mmHg 76%
    17:00 +14°C° 0,7 mm 6 mps 759 mmHg 79%
    18:00 +14°C° 0,7 mm 6 mps 759 mmHg 82%
    19:00 +13°C° 0,7 mm 6 mps 759 mmHg 85%
    20:00 +13°C° 0,8 mm 6 mps 759 mmHg 85%
    21:00 +13°C° 0,8 mm 5 mps 759 mmHg 86%
    22:00 +13°C° 0,8 mm 5 mps 759 mmHg 86%
    23:00 +13°C° 0,5 mm 5 mps 759 mmHg 89%

    27 Noviembre, Lunes

    Tiempo Temperatura Precipitaciones Viento Presión Humedad
    00:00 +12°C° 0,5 mm 4 mps 758 mmHg 91%
    01:00 +11°C° 0,5 mm 4 mps 758 mmHg 93%
    02:00 +11°C° 0,2 mm 4 mps 758 mmHg 92%
    03:00 +11°C° 0,2 mm 4 mps 759 mmHg 90%
    04:00 +10°C° 0,2 mm 5 mps 759 mmHg 89%
    05:00 +10°C° 0,3 mm 5 mps 759 mmHg 90%
    06:00 +9°C° 0,3 mm 5 mps 760 mmHg 91%
    07:00 +9°C° 0,3 mm 5 mps 760 mmHg 92%
    08:00 +10°C° 0 mm 5 mps 760 mmHg 86%
    09:00 +12°C° 0 mm 5 mps 761 mmHg 80%
    10:00 +12°C° 0 mm 4 mps 761 mmHg 74%
    11:00 +13°C° 0,1 mm 5 mps 761 mmHg 72%
    12:00 +13°C° 0,1 mm 5 mps 761 mmHg 70%
    13:00 +13°C° 0,1 mm 5 mps 761 mmHg 68%
    14:00 +13°C° 0,1 mm 5 mps 761 mmHg 72%
    15:00 +12°C° 0,1 mm 4 mps 761 mmHg 76%
    16:00 +12°C° 0,1 mm 4 mps 761 mmHg 80%
    17:00 +11°C° 0,1 mm 4 mps 761 mmHg 83%
    18:00 +10°C° 0,1 mm 4 mps 761 mmHg 85%
    19:00 +10°C° 0,1 mm 4 mps 762 mmHg 88%
    20:00 +10°C° 0,1 mm 3 mps 762 mmHg 88%
    21:00 +9°C° 0,1 mm 3 mps 762 mmHg 88%
    22:00 +9°C° 0,1 mm 3 mps 762 mmHg 88%
    23:00 +9°C° 0 mm 3 mps 762 mmHg 88%

    28 Noviembre, Martes

    Tiempo Temperatura Precipitaciones Viento Presión Humedad
    00:00 +9°C° 0 mm 3 mps 762 mmHg 88%
    01:00 +8°C° 0 mm 3 mps 762 mmHg 88%
    02:00 +8°C° 0 mm 3 mps 762 mmHg 88%
    03:00 +8°C° 0 mm 3 mps 762 mmHg 87%
    04:00 +8°C° 0 mm 2 mps 762 mmHg 87%
    05:00 +7°C° 0 mm 2 mps 762 mmHg 87%
    06:00 +7°C° 0 mm 2 mps 763 mmHg 86%
    07:00 +7°C° 0 mm 2 mps 763 mmHg 86%
    08:00 +8°C° 0 mm 2 mps 763 mmHg 78%
    09:00 +9°C° 0 mm 2 mps 763 mmHg 70%
    10:00 +12°C° 0 mm 2 mps 763 mmHg 62%
    11:00 +12°C° 0 mm 2 mps 763 mmHg 59%
    12:00 +13°C° 0 mm 2 mps 762 mmHg 56%
    13:00 +13°C° 0 mm 2 mps 762 mmHg 52%
    14:00 +12°C° 0 mm 2 mps 762 mmHg 56%
    15:00 +10°C° 0 mm 2 mps 762 mmHg 61%
    16:00 +10°C° 0 mm 2 mps 762 mmHg 65%
    17:00 +10°C° 0 mm 1 mps 762 mmHg 67%
    18:00 +9°C° 0 mm 1 mps 762 mmHg 70%
    19:00 +9°C° 0 mm 1 mps 763 mmHg 72%
    20:00 +8°C° 0 mm 1 mps 763 mmHg 74%
    21:00 +8°C° 0 mm 1 mps 763 mmHg 75%
    22:00 +8°C° 0 mm 1 mps 763 mmHg 76%
    23:00 +7°C° 0 mm 2 mps 763 mmHg 78%
    Mostrar más